Overview Statistics Trail Chart Weather Telemetry Raw packets
 

This is the latest recevied weather packets stored in our database for station/object PP5CFL-2. If no packets are shown the sender has not sent any weather packets the latest 10 day(s).

<< 34 35 36 37 38 39 40 >>
Time Temp. Humidity Pressure Rain* Wind** Luminosity Snow
1788440817 28.89° C 54% 1015.7 hPa - - - -
1788440517 29.44° C 56% 1015.6 hPa - - - -
1788440217 28.89° C 57% 1015.7 hPa - - - -
1788439917 28.89° C 57% 1015.8 hPa - - - -
1788439617 28.33° C 59% 1015.7 hPa - - - -
1788439317 27.78° C 61% 1015.8 hPa - - - -
1788439017 27.22° C 61% 1016 hPa - - - -
1788438717 27.22° C 62% 1015.9 hPa - - - -
1788438417 27.22° C 64% 1016 hPa - - - -
1788438117 26.67° C 67% 1016.1 hPa - - - -
1788437817 26.11° C 68% 1016.3 hPa - - - -
1788437517 25.56° C 68% 1016.3 hPa - - - -
1788437217 25.56° C 70% 1016.4 hPa - - - -
1788436917 25.56° C 72% 1016.5 hPa - - - -
1788436617 25° C 72% 1016.7 hPa - - - -
1788436317 25° C 75% 1016.7 hPa - - - -
1788436017 24.44° C 76% 1016.6 hPa - - - -
1788435717 24.44° C 78% 1016.5 hPa - - - -
1788435417 23.89° C 78% 1016.4 hPa - - - -
1788435117 23.33° C 80% 1016.5 hPa - - - -
1788434817 22.78° C 80% 1016.7 hPa - - - -
1788434517 22.78° C 83% 1016.7 hPa - - - -
1788434217 22.22° C 83% 1016.7 hPa - - - -
1788433917 22.22° C 85% 1016.7 hPa - - - -
1788433617 21.67° C 87% 1016.6 hPa - - - -

* Rain since midnight (hover to see other rain measurements)
** Current wind speed in m/s (hover to see current wind gust speed)